Stations météo

réclame
Mon MeteoGroup
Olbia/Costa Smeralda, Italie (16531): Température de l'air & dewpoint: 18.01.2018 06:00:00 - 24.01.2018 06:00:00 (CET)Olbia/Costa Smeralda, Italie (16531): Vitesse du vent: 18.01.2018 06:00:00 - 24.01.2018 06:00:00 (CET)Olbia/Costa Smeralda, Italie (16531): Direction du vent: 18.01.2018 06:00:00 - 24.01.2018 06:00:00 (CET)Olbia/Costa Smeralda, Italie (16531): reduced air pressure: 18.01.2018 06:00:00 - 24.01.2018 06:00:00 (CET)Olbia/Costa Smeralda, Italie (16531): visibility: 18.01.2018 06:00:00 - 24.01.2018 06:00:00 (CET)Olbia/Costa Smeralda, Italie (16531): Quantités de précipitations: 18.01.2018 06:00:00 - 24.01.2018 06:00:00 (CET)
Date & Time tt [°C] td [°C] ff [km/h] ff [knt] dd ppp [hPa] vv [km] rr [mm]
24.01.2018 06:00:00 4,0 4,0 4 2 - - 8 -
24.01.2018 05:00:00 6,0 5,0 2 1 - - 10 -
24.01.2018 04:00:00 6,1 5,5 4 2 WSW 1027,5 10 0,0
24.01.2018 03:00:00 6,0 6,0 4 2 SW - 10 -
24.01.2018 02:00:00 6,0 6,0 2 1 - - 10 -
24.01.2018 01:00:00 6,2 5,4 2 1 S 1026,8 10 -
24.01.2018 00:00:00 7,0 7,0 2 1 - - 10 -
23.01.2018 23:00:00 8,0 7,0 5 3 W - 10 -
23.01.2018 22:00:00 8,0 7,0 2 1 SSE 1025,7 24 0,0
23.01.2018 21:00:00 9,0 7,0 5 3 SE - 10 -
23.01.2018 20:00:00 11,0 9,0 2 1 - - 10 -
23.01.2018 19:00:00 12,9 9,7 4 2 NE 1023,9 15 -
23.01.2018 18:00:00 14,0 10,0 4 2 - - 10 -
23.01.2018 17:00:00 17,0 11,0 5 3 - - 10 -
23.01.2018 16:00:00 19,2 10,0 16 9 SW 1020,8 15 0,0
23.01.2018 15:00:00 19,0 10,0 26 14 SW - 10 -
23.01.2018 14:00:00 19,0 10,0 24 13 WSW - 10 -
23.01.2018 13:00:00 18,6 9,1 22 12 SW 1020,2 27 -
23.01.2018 12:00:00 17,0 10,0 26 14 SW - 10 -
23.01.2018 11:00:00 16,0 10,0 28 15 SW - 10 -
23.01.2018 10:00:00 15,5 9,7 21 11 WSW 1019,7 25 0,0
23.01.2018 09:00:00 14,0 9,0 21 11 WSW - 10 -
23.01.2018 08:00:00 13,0 8,0 16 9 WSW - 10 -
23.01.2018 07:00:00 12,6 7,8 8 4 SSW 1017,6 15 -
23.01.2018 06:00:00 14,0 8,0 18 10 W - 10 -
23.01.2018 05:00:00 15,0 8,0 24 13 W - 10 -
23.01.2018 04:00:00 14,9 8,3 35 19 W 1015,3 10 0,0
23.01.2018 03:00:00 15,0 9,0 31 17 W - 10 -
23.01.2018 02:00:00 16,0 9,0 39 21 W - 10 -
23.01.2018 01:00:00 16,0 9,2 26 14 WSW 1016,5 15 -
23.01.2018 00:00:00 16,0 9,0 29 16 W - 10 -
22.01.2018 23:00:00 15,0 9,0 26 14 SW - 10 -
22.01.2018 22:00:00 15,4 8,9 29 16 SW 1015,9 15 0,0
22.01.2018 21:00:00 15,0 9,0 39 21 WSW - 10 -
22.01.2018 20:00:00 16,0 9,0 41 22 W - 10 -
22.01.2018 19:00:00 15,4 8,4 37 20 WSW 1015,7 18 -
22.01.2018 18:00:00 16,0 9,0 39 21 WSW - 10 -
22.01.2018 17:00:00 16,0 9,0 34 18 W - 10 -
22.01.2018 16:00:00 17,2 9,2 37 20 W 1015,0 18 0,0
22.01.2018 15:00:00 17,0 9,0 39 21 W - 10 -
22.01.2018 14:00:00 18,0 10,0 24 13 W - 10 -
22.01.2018 13:00:00 17,7 9,3 29 16 WNW 1015,4 15 -
22.01.2018 12:00:00 18,0 9,0 31 17 W - 10 -
22.01.2018 11:00:00 17,0 9,0 42 23 W - 10 -
22.01.2018 10:00:00 16,6 9,0 39 21 W 1015,0 15 0,0
22.01.2018 09:00:00 16,0 9,0 34 18 WSW - 10 -
22.01.2018 08:00:00 15,0 9,0 39 21 WSW - 10 -
22.01.2018 07:00:00 15,3 9,6 39 21 W 1013,5 27 -
22.01.2018 06:00:00 16,0 10,0 29 16 W - 10 -
22.01.2018 05:00:00 16,0 10,0 35 19 W - 10 -
22.01.2018 04:00:00 15,8 9,8 37 20 W 1013,6 24 0,0
22.01.2018 03:00:00 15,0 10,0 28 15 WSW - 10 -
22.01.2018 02:00:00 16,0 9,0 21 11 SW - 10 -
22.01.2018 01:00:00 15,8 9,1 31 17 WSW 1014,0 10 -
22.01.2018 00:00:00 16,0 9,0 37 20 W - 10 -
21.01.2018 23:00:00 16,0 9,0 39 21 W - 10 -
21.01.2018 22:00:00 15,2 8,6 34 18 W 1013,2 10 0,0
21.01.2018 21:00:00 15,0 8,0 28 15 WSW - 10 -
21.01.2018 20:00:00 15,0 8,0 29 16 WSW - 10 -
21.01.2018 19:00:00 14,0 6,8 18 10 WSW 1012,1 18 -
21.01.2018 18:00:00 14,0 7,0 24 13 WSW - 10 -
21.01.2018 17:00:00 16,0 6,0 28 15 WSW - 10 -
21.01.2018 16:00:00 16,2 6,9 28 15 W 1010,1 18 0,0
21.01.2018 15:00:00 17,0 7,0 44 24 W - 10 -
21.01.2018 14:00:00 17,0 7,0 55 30 W - 10 -
21.01.2018 13:00:00 17,0 7,5 57 31 W 1007,6 10 -
21.01.2018 12:00:00 18,0 9,0 48 26 W - 10 -
21.01.2018 11:00:00 18,0 8,0 48 26 WSW - 10 -
21.01.2018 10:00:00 17,5 9,3 37 20 SW 1008,3 25 0,0
21.01.2018 09:00:00 17,0 9,0 41 22 W - 10 -
21.01.2018 08:00:00 16,0 9,0 44 24 W - 10 -
21.01.2018 07:00:00 16,5 9,2 55 30 W 1005,4 10 -
21.01.2018 06:00:00 - - - - - - - -
21.01.2018 05:00:00 16,0 10,0 46 25 WSW - 10 -
21.01.2018 04:00:00 15,5 9,2 42 23 WSW 1007,8 10 0,0
21.01.2018 03:00:00 14,0 9,0 41 22 SW - 10 -
21.01.2018 02:00:00 14,0 9,0 44 24 WSW - 10 -
21.01.2018 01:00:00 13,5 9,2 48 26 WSW 1010,4 10 -
21.01.2018 00:00:00 12,0 9,0 46 25 WSW - 10 -
20.01.2018 23:00:00 12,0 8,0 59 32 WSW - 10 -
20.01.2018 22:00:00 11,7 8,0 48 26 WSW 1012,4 10 0,0
20.01.2018 21:00:00 12,0 7,0 41 22 W - 10 -
20.01.2018 20:00:00 13,0 5,0 37 20 W - 10 -
20.01.2018 19:00:00 12,8 4,0 35 19 W 1014,2 20 -
20.01.2018 18:00:00 13,0 4,0 39 21 W - 10 -
20.01.2018 17:00:00 14,0 3,0 39 21 W - 10 -
20.01.2018 16:00:00 13,5 2,8 35 19 W 1014,8 20 0,0
20.01.2018 15:00:00 14,0 3,0 37 20 W - 10 -
20.01.2018 14:00:00 14,0 3,0 42 23 W - 10 -
20.01.2018 13:00:00 13,9 2,7 35 19 W 1015,8 10 -
20.01.2018 12:00:00 14,0 3,0 37 20 W - 10 -
20.01.2018 11:00:00 14,0 3,0 37 20 W - 10 -
20.01.2018 10:00:00 13,3 3,4 26 14 W 1016,2 20 0,0
20.01.2018 09:00:00 13,0 3,0 39 21 W - 10 -
20.01.2018 08:00:00 12,0 5,0 39 21 W - 10 -
20.01.2018 07:00:00 11,9 4,1 34 18 W 1014,2 18 -
20.01.2018 06:00:00 12,0 3,0 35 19 WSW - 10 -
20.01.2018 05:00:00 13,0 3,0 44 24 W - 10 -
20.01.2018 04:00:00 12,6 4,1 34 18 W 1014,2 10 0,0
20.01.2018 03:00:00 13,0 5,0 31 17 W - 10 -
20.01.2018 02:00:00 13,0 6,0 37 20 W - 10 -
20.01.2018 01:00:00 13,5 5,0 42 23 W 1013,6 18 -
20.01.2018 00:00:00 14,0 6,0 41 22 W - 10 -
19.01.2018 23:00:00 14,0 6,0 37 20 W - 10 -
19.01.2018 22:00:00 13,5 5,5 29 16 W 1014,1 18 0,0
19.01.2018 21:00:00 14,0 6,0 31 17 W - 10 -
19.01.2018 20:00:00 14,0 7,0 37 20 W - 10 -
19.01.2018 19:00:00 14,1 6,3 28 15 W 1013,9 10 -
19.01.2018 18:00:00 14,0 8,0 28 15 WSW - 10 -
19.01.2018 17:00:00 15,0 7,0 28 15 W - 10 -
19.01.2018 16:00:00 15,0 7,3 22 12 WSW 1013,6 20 0,0
19.01.2018 15:00:00 15,0 8,0 13 7 W - 10 -
19.01.2018 14:00:00 15,0 8,0 24 13 WSW - 10 -
19.01.2018 13:00:00 15,1 9,2 18 10 WSW 1014,4 18 -
19.01.2018 12:00:00 14,0 9,0 21 11 SW - 10 -
19.01.2018 11:00:00 13,0 9,0 15 8 SW - 10 -
19.01.2018 10:00:00 13,1 8,1 16 9 SW 1015,5 10 0,0
19.01.2018 09:00:00 13,0 8,0 24 13 WSW - 10 -
19.01.2018 08:00:00 13,0 8,0 28 15 SW - 10 -
19.01.2018 07:00:00 12,8 8,3 31 17 WSW 1015,5 10 -
19.01.2018 06:00:00 13,0 8,0 35 19 WSW - 10 -
19.01.2018 05:00:00 13,0 8,0 24 13 W - 10 -
19.01.2018 04:00:00 12,4 7,8 34 18 WSW 1016,3 10 0,0
19.01.2018 03:00:00 13,0 8,0 37 20 WSW - 10 -
19.01.2018 02:00:00 12,0 8,0 37 20 WSW - 10 -
19.01.2018 01:00:00 12,0 7,2 34 18 WSW 1018,2 10 -
19.01.2018 00:00:00 12,0 7,0 31 17 WSW - 10 -
18.01.2018 23:00:00 12,0 8,0 26 14 WSW - 10 -
18.01.2018 22:00:00 12,4 7,7 24 13 WSW 1019,7 10 0,0
18.01.2018 21:00:00 13,0 7,0 29 16 WSW - 10 -
18.01.2018 20:00:00 13,0 7,0 28 15 WSW - 10 -
18.01.2018 19:00:00 12,7 6,6 35 19 WSW 1020,2 10 -
18.01.2018 18:00:00 13,0 6,0 42 23 W - 10 -
18.01.2018 17:00:00 13,0 6,0 34 18 W - 10 -
18.01.2018 16:00:00 14,1 5,8 54 29 W 1019,8 10 0,0
18.01.2018 15:00:00 15,0 5,0 46 25 W - 10 -
18.01.2018 14:00:00 16,0 5,0 42 23 W - 10 -
18.01.2018 13:00:00 15,6 3,2 46 25 W 1020,6 10 -
18.01.2018 12:00:00 15,0 4,0 24 13 W - 10 -
18.01.2018 11:00:00 14,0 5,0 29 16 WSW - 10 -
18.01.2018 10:00:00 13,0 4,3 22 12 WSW 1021,4 10 0,0
18.01.2018 09:00:00 11,0 3,0 22 12 WSW - 10 -
18.01.2018 08:00:00 11,0 2,0 22 12 W - 10 -
18.01.2018 07:00:00 10,6 2,0 22 12 W 1020,6 10 -
18.01.2018 06:00:00 11,0 1,0 24 13 W - 10 -

tt = Température de l'air
td = dewpoint
ff = Vitesse du vent
dd = Direction du vent
ppp = reduced air pressure
vv = visibility
rr = Quantités de précipitations

stations d'obs. à proximité